Content
SEND FEEDBACK

Daily
Averages
Monthly
Summary
United States of America

GALESBURG, KANSAS


Home > North America > United States > Kansas
Elevation: 275 meters     Latitude: 37 22N     Longitude: 095 17W

WEATHER
 
SELECT A DAY
Number of Records: 184,527;   Date Range: 7/1/96 - 7/26/14
 
SHARE

PRINT THIS DATA

[ ← Previous Day ]
WEATHER ALMANAC - 31 JANUARY, 2013
[ Next Day → ]
[ °F ]   °C
Weather ElementAverageHighLow
Temperature-4.2 °C1.7 °C (10:52 am)-10 °C (11:52 pm)
Dewpoint-9.5 °C-3.9 °C (10:52 am)-15 °C (10:52 pm)
Humidity68.7 %92 % (6:52 am)49 % (4:52 pm)
Barometer1024.4 hPa1033.9 hPa (11:52 pm)1016.3 hPa (4:52 am)
Wind Speed12.4 km/h27.8 km/h (2:17 pm)
Wind Gust46.3 km/h (2:52 pm)
Weather ElementAverage
Visibility15.8 km
Wind DirectionWSW (233.5 °)

Weather ElementTotal
Precipitation---
Heating Degree Days22.5 (Base 18.3)
Averaged from 23 records on 31 January, 2013
WEATHER CONDITIONS BREAKOUT
WIND DIRECTION BREAKOUT
WEATHER BY HOUR - 31 JANUARY, 2013
[ °F ]   °C
Local TimeTemperatureDewpointHumidityBarometerVisibilityWind DirectionWind SpeedGust SpeedPrecipitationEventsConditions
1:52 AM-6.1 °C-8.3 °C85 %1017.3 hPa16.1 kmCalmClear
2:52 AM-5.6 °C-7.8 °C85 %1017.3 hPa16.1 kmSouth (180°)5.6 km/hClear
3:52 AM-4.4 °C-6.7 °C84 %1016.9 hPa16.1 kmSSW (200°)9.3 km/hClear
4:52 AM-5 °C-7.2 °C85 %1016.3 hPa16.1 kmSouth (180°)7.4 km/hClear
5:52 AM-5 °C-7.2 °C85 %1016.3 hPa16.1 kmSouth (190°)7.4 km/hScattered Clouds
6:52 AM-6.1 °C-7.2 °C92 %1017.3 hPa14.5 kmCalmClear
7:52 AM-6.7 °C-8.3 °C89 %1018.3 hPa11.3 kmCalmPartly Cloudy
8:52 AM-2.2 °C-4.4 °C85 %1019.3 hPa14.5 kmCalmOvercast
9:52 AM0.6 °C-4.4 °C70 %1020.3 hPa16.1 kmNorth (360°)13 km/hPartly Cloudy
10:52 AM1.7 °C-3.9 °C67 %1022.4 hPa16.1 kmNNW (340°)13 km/hMostly Cloudy
11:52 AM1.1 °C-5.6 °C61 %1024 hPa16.1 kmNorth (360°)20.4 km/h29.6 km/hOvercast
12:52 PM0.6 °C-7.2 °C56 %1025.1 hPa16.1 kmNNW (340°)25.9 km/h37 km/hOvercast
2:17 PM-2 °C-8 °C64 %1024.4 hPa16.1 kmNorth (350°)27.8 km/h40.7 km/h0 mmOvercast
2:52 PM-2.8 °C-10 °C58 %1026.1 hPa16.1 kmNorth (350°)25.9 km/h46.3 km/h0 mmOvercast
3:52 PM-2.8 °C-10.6 °C56 %1027.1 hPa16.1 kmNorth (360°)20.4 km/h31.5 km/hClear
4:52 PM-2.8 °C-12.2 °C49 %1028.1 hPa16.1 kmNorth (350°)24.1 km/h35.2 km/hClear
5:52 PM-4.4 °C-12.8 °C53 %1029.1 hPa16.1 kmNorth (360°)20.4 km/h29.6 km/hClear
6:52 PM-5.6 °C-14.4 °C51 %1030.5 hPa16.1 kmNorth (360°)18.5 km/h29.6 km/hClear
7:52 PM-6.7 °C-14.4 °C55 %1032.2 hPa16.1 kmNNE (20°)9.3 km/hClear
8:52 PM-7.2 °C-14.4 °C57 %1032.8 hPa16.1 kmNorth (350°)14.8 km/hClear
9:52 PM-7.8 °C-14.4 °C60 %1033.2 hPa16.1 kmNorth (360°)13 km/hClear
10:52 PM-8.3 °C-15 °C59 %1033.5 hPa16.1 kmNorth (360°)7.4 km/hClear
11:52 PM-10 °C-13.9 °C74 %1033.9 hPa16.1 kmCalmClear
Hourly data recorded from KPPF, located 0 kilometers away from Galesburg, Kansas







STORIES FROM OUR PARTNERS